CAPE
0 0 0 0 0 0 0 0 0 0 9 0 0 0 0 1 1101 1438 2270 1769 1709 1370 1091 884 643 901 571 514 2133 1487 1482 1127 916 866 992 941 800 729 671 762 830 975 1088 1168 1189 1256 1418 1777 1985 2204 2088 1814 1828 2097 1985 2050 1844 1692 1806 1978 2099 1952 1799 1904 1960 2007 1612 1324 1448 1709 1588 1891 2042 2354 2317 2211 2032 1689 1697 1384 1635 2338 2545 3704 3642 3926
0 0 0 0 0 0 0 0 0 0 1 0 0 0 0 8 280 1439 2170 1976 1897 1710 1146 1402 1031 692 937 871 1448 1887 1688 1364 991 929 957 909 733 752 830 805 845 1032 1140 1256 1263 1195 1355 1730 1906 2191 2208 1878 1980 2113 2119 1967 1928 1738 1625 1849 2044 1963 1962 1914 1888 1929 1650 1522 1482 1506 1637 1665 1681 2250 2196 2196 2185 1929 1936 2437 2768 2450 2533 3632 4092 3866
0 0 0 0 0 3 2 0 0 0 0 5 1 2 0 63 1178 1513 1485 1922 2228 1259 1482 1701 1560 1466 1231 1197 1570 1800 1705 1300 1026 928 941 1018 885 830 748 849 923 944 1126 1275 1228 1155 1404 1759 1760 2136 2248 2018 1978 2025 1909 1991 1970 1687 1922 1966 2128 2036 2095 2024 1975 1942 1876 1674 1596 1686 1616 1900 1791 1890 1900 1856 1907 2104 1920 2267 2572 2623 3270 3711 3579 3863
0 0 0 0 0 0 0 0 0 0 0 10 3 0 0 82 87 1099 1773 1721 1772 1498 2337 1639 1317 1402 1497 1404 1255 1576 1737 1760 1526 966 824 908 1010 949 764 819 814 928 1134 1289 1208 1108 1237 1774 2000 2027 2247 2189 2122 1858 1787 1863 1868 1557 2027 2245 2230 2253 2099 2100 2164 2171 2162 2052 2076 2221 2059 2065 1670 1661 2090 2471 2404 2308 2300 2274 2467 2976 3395 3236 3346 3341
0 0 0 0 0 0 0 0 0 0 0 9 4 1 0 4 48 726 2047 1739 1599 1739 1711 1308 1314 994 1193 1347 1364 1436 1617 1942 2302 2248 1397 1007 1037 1044 861 777 848 949 1020 1172 1060 1124 1217 1674 1906 2005 2159 2200 2173 1729 1700 1745 1625 1293 1852 2354 2550 2337 2011 2074 2449 2502 2257 2367 2567 2568 2447 2259 2369 2379 2058 1819 1753 1950 2377 2506 2525 2693 2891 2979 3419 3440
0 0 0 0 0 0 0 0 0 0 0 2 4 4 0 11 643 1172 1769 1604 1409 1978 1663 1397 998 7 273 587 728 1110 1464 1714 1929 2045 2063 1535 1106 1020 893 784 824 876 981 1118 1045 980 1065 1449 1859 1914 2091 2107 2127 1816 1621 1556 1470 1174 1591 2066 2426 2164 2169 2032 2427 2526 2685 2503 2230 2102 1995 1897 1871 1968 1744 1634 1774 1759 2188 2192 2252 2592 2311 2700 3011 3496
0 0 0 0 0 0 0 0 0 0 0 0 29 10 3 76 420 1119 1628 1293 96 4 1873 1623 527 0 12 116 462 1496 1848 1535 1354 1579 1740 1880 1750 1263 980 620 625 808 933 981 1056 1007 1045 1346 1563 1894 2057 2039 2161 1972 1575 1410 1454 1250 1360 1930 1941 2018 2082 2022 2421 2455 2678 2484 2238 2200 1775 1682 1636 1776 1674 1877 1576 1552 1708 1908 2564 2856 2847 2989 2947 3256
0 0 0 0 0 0 0 0 0 0 0 1 30 71 12 144 244 484 1113 692 725 488 1610 1666 1006 74 0 403 725 1493 1454 1497 1469 1592 1601 1672 1978 1776 1274 712 573 673 821 959 1089 1103 1093 1321 1311 1698 1910 1877 1960 2054 1722 1396 1450 1531 1521 1785 1916 2057 2006 1880 2355 2625 2692 2518 2552 2401 1856 1844 1759 1360 1761 1800 2022 1792 2034 2484 2740 2718 2958 3023 2792 3228
0 0 0 0 0 0 0 0 0 0 0 236 146 98 156 133 364 536 445 481 580 608 488 961 1128 291 1 317 915 1129 1231 1258 1191 1427 1746 1748 1801 2029 1882 929 582 659 829 847 1022 1096 1179 1309 1298 1596 1917 1795 1757 1952 1939 1531 1473 1607 1866 1980 1924 2176 2296 2117 2390 2525 2669 2573 2661 2504 2017 2043 1831 1655 1747 2123 2314 2252 2256 2305 2558 2991 2978 3368 3488 3033
0 0 0 0 0 0 0 0 0 0 0 319 502 418 305 448 402 404 340 255 771 246 10 141 513 15 1 39 480 817 528 649 649 1121 1379 1626 1857 1889 1813 1634 875 692 862 870 849 1008 1216 1283 1325 1566 1813 1825 1692 1875 1982 1770 1584 1645 1991 2287 2126 2397 2441 2404 2709 2770 2707 2730 2795 2545 2091 1968 1891 1741 2161 2393 2648 2797 3010 2424 2735 3127 3305 3086 3262 3395
0 0 0 0 0 0 0 0 0 0 237 159 241 137 119 164 450 530 292 272 234 21 23 189 521 458 1 8 0 9 633 446 451 861 1134 1260 1748 1908 1807 1990 1579 873 823 980 938 942 1136 1278 1160 1630 1662 1535 1716 1813 1978 1973 1753 1705 1999 2314 2464 2589 2241 2336 2802 2769 2906 2699 2649 2400 2236 2137 1953 1845 2318 2459 2533 2844 2963 2670 2575 3049 3184 3080 3149 3011
0 0 0 0 0 0 0 12 67 97 159 93 26 0 0 92 221 244 256 248 12 0 488 1006 614 1165 8 4 0 217 705 860 774 838 950 1394 1724 1703 2035 2016 1904 1142 924 1035 998 844 1029 1425 1043 1751 1683 1500 1581 1757 2011 2014 1878 1851 1902 2217 2524 2628 2466 2282 2542 2501 2520 2364 2313 2183 2254 2300 2098 2200 2164 2476 2444 2528 2736 2524 2525 2766 2910 3066 2954 2790
0 0 0 0 0 0 0 0 110 201 172 2 0 0 0 81 4 10 101 36 0 140 584 977 1078 471 111 0 0 176 460 1062 1512 1248 1369 1458 1576 1700 1617 1836 1813 1675 1373 1144 1124 1050 1033 1355 1541 1580 1485 1834 1725 1846 2054 2005 1906 1925 1913 2167 2429 2603 2600 2560 2277 2409 2398 2341 2219 2214 2144 2167 2106 2149 2447 2452 2248 2454 2512 2487 2478 3021 3013 2822 2793 2676
0 0 0 0 0 0 0 0 0 0 0 0 0 0 0 0 0 0 1 0 0 190 440 366 1216 93 0 0 100 2 492 1049 1180 1528 1703 1848 2100 2068 1796 1670 1548 1711 1668 1619 1405 1164 1108 1323 1734 1268 1133 1604 2005 1704 1286 1770 1980 1993 1917 2154 2323 2658 2690 2684 2421 2249 2399 2424 2367 2257 2070 1921 2051 2195 2095 1994 1942 2132 2406 2514 2572 2476 2423 2400 2308 2000
0 0 0 0 0 0 0 0 0 0 0 0 0 0 0 1 0 3 1 4 2 195 597 1472 195 0 1 846 584 791 1054 1228 1460 1687 2062 2267 2304 2575 2172 1947 1643 1636 1724 1753 1779 1511 1247 1347 1634 1683 1661 1542 1615 1353 1262 1833 1877 2068 2035 2251 2408 2624 2734 2766 2554 2311 2328 2200 2348 2251 2003 1935 1799 1710 1702 1741 1916 2211 2332 2212 2202 2506 2172 1864 1908 1789
0 0 0 0 0 0 0 0 0 0 0 0 0 0 0 0 0 0 6 0 0 0 32 476 4 0 16 781 1190 1036 949 1555 1494 1674 2022 1739 1872 2552 2576 2203 1912 1705 1667 1790 1829 1726 1549 1470 1627 1625 1804 1882 1691 1855 1979 1834 1921 2109 2190 2323 2491 2516 2684 2645 2633 2402 2258 2175 1970 2126 2141 1890 1796 1625 1495 1620 1962 2341 2405 2424 2281 2504 2481 2316 1982 2134
0 0 0 0 0 0 0 0 0 0 0 0 0 0 0 0 0 0 0 0 0 0 0 0 0 0 0 1 115 603 931 1511 1232 1255 1373 1470 1577 2077 2290 2448 2414 2344 2213 1999 1970 2006 1892 1715 1614 1580 1676 1828 2072 1960 1655 2137 2075 2023 1905 2345 2627 2492 2551 2512 2616 2366 2112 2050 1847 1989 2016 1806 1747 1731 1559 1401 1873 1829 2116 2276 2216 2130 2246 2276 2349 2140
0 0 0 0 0 0 0 0 0 0 0 0 0 0 0 0 0 0 0 8 0 0 107 0 0 0 11 6 330 913 620 1040 1125 964 1190 1539 1336 1274 1972 2496 2861 2934 2813 2583 2453 2318 2170 1954 1800 1661 1552 1797 2052 2045 2054 2105 2240 2594 2779 2555 2556 2522 2471 2291 2272 2014 1908 1928 1876 1889 1946 1726 1736 1545 1312 1179 1480 1646 1967 2292 2151 2147 2032 2174 2252 2045
0 0 0 0 0 0 0 0 0 0 0 0 2 0 0 0 0 0 0 6 0 0 0 0 0 0 0 49 144 490 338 434 883 1032 1034 1273 1261 1278 1544 2254 2787 2831 2816 2789 2705 2517 2420 2267 1948 1861 1612 1899 2154 2040 2194 2354 2346 2504 2631 2262 2113 2298 2156 2040 1993 1822 1805 1793 1713 1683 1687 1512 1502 1437 1408 1280 1177 1355 1722 2033 2068 1943 1915 1938 2140 2246
0 0 0 0 0 0 0 0 0 0 0 0 0 0 0 0 0 0 0 0 0 0 0 0 0 2 1 0 0 96 277 516 766 845 1047 1115 1096 1236 1497 1800 2441 2756 2890 2876 2722 2648 2405 2158 2079 1910 1861 1931 2204 2547 2201 2001 1848 1996 2210 2226 2020 1990 2066 2158 1890 1871 1754 1683 1697 1550 1604 1623 1650 1676 1482 1441 1367 1107 1261 1577 1820 1863 1711 1711 1939 1990
0 0 0 0 0 0 0 0 0 1 0 0 0 0 0 0 6 0 0 0 0 0 0 0 0 0 7 0 77 320 687 859 1088 1238 1274 1362 1454 1563 1835 1954 2281 2599 2724 2734 2712 2226 2400 2276 2046 2001 2263 2556 2543 2284 1860 1704 1476 1687 1756 1533 1588 1978 1816 1857 1964 1868 1925 1773 1658 1669 1629 1590 1754 1549 1487 1306 1242 1286 1139 1235 1438 1401 1648 1771 1882 1870
0 0 0 0 0 0 0 0 0 0 0 0 0 0 0 0 0 0 15 0 0 0 0 0 0 0 0 328 74 422 735 1062 1323 1232 1187 1517 1773 2200 2395 2269 2210 2420 2670 2556 2489 2392 2409 2316 2109 2180 2295 2071 1948 1857 1767 1415 1443 1632 1410 998 1134 1754 1768 1402 1691 1934 1992 1884 1853 1576 1557 1634 1436 1621 1285 1053 854 1105 931 1013 1220 1385 1368 1504 1735 1926
0 0 0 0 0 2 26 8 0 0 0 4 0 0 0 0 0 0 0 143 11 0 0 0 0 0 98 376 824 674 1095 1122 1079 945 1217 1533 2062 2308 2285 2124 2356 2455 2511 2582 2520 2676 2562 2424 2530 2402 2199 1955 1724 1701 1690 1572 1487 1596 1553 1395 1840 1906 1930 1629 1575 1820 2035 2118 1973 1812 1582 1524 1450 1341 1301 894 455 491 581 696 1019 1224 1329 1239 1213 1426
0 0 0 0 2 0 0 0 18 0 0 0 0 0 0 0 0 0 0 12 0 70 1 0 2 24 869 944 1252 1365 1842 1576 1068 973 1336 1439 1987 2282 2243 2088 2290 2141 2328 2628 2616 2719 2680 2603 2420 2464 2313 2183 2075 1919 1760 1727 1690 1751 1848 1941 1959 2115 2311 2086 1873 1905 2209 2344 2236 1939 1713 1478 1456 1189 1224 839 465 269 351 330 458 952 1118 1003 932 930
0 0 0 0 0 5 0 0 2 18 4 0 3 30 1 4 7 24 21 103 0 0 0 0 0 0 241 1518 1733 1458 1736 1318 1087 1104 1050 1671 1974 2022 1999 2045 2058 2014 2067 2190 2662 2641 2538 2298 1855 2026 1976 2427 2306 2062 1968 1882 1877 1843 1962 2130 2129 2295 2227 1981 2007 2008 2216 2498 2402 2000 1670 1512 1357 1270 1236 1135 634 345 218 168 99 278 685 846 628 614
0 0 0 0 0 0 2 12 14 2 0 0 85 428 109 4 95 32 0 76 4 85 18 0 1 20 277 978 1150 924 1306 1307 1246 1213 1488 1676 2150 1693 1695 1868 2015 1993 2098 2339 2438 2335 2066 1691 1845 1881 2127 2124 2237 2379 2216 2258 2028 2014 2240 2093 2220 2200 2269 2149 1996 1962 2206 2504 2534 2393 1713 1562 1429 1310 1263 1263 1113 788 460 290 112 88 170 481 580 453
0 20 0 0 0 0 0 106 0 0 22 0 29 49 49 8 27 24 30 121 26 333 64 11 0 0 0 71 408 732 851 773 1019 1276 1220 1567 1765 1919 2126 2176 2052 2171 2466 2237 2113 1866 1721 1669 1644 1758 1984 1896 2170 2167 2353 2451 2360 2191 2333 2375 2154 2042 1996 2251 2133 2074 2257 2124 2379 2224 1939 1568 1465 1489 1269 1283 1406 1323 893 492 314 154 119 185 318 273
71 0 0 36 0 0 0 2 0 0 0 0 0 46 44 41 67 58 64 210 118 76 4 0 37 0 0 0 0 42 156 548 654 1028 1318 1371 1742 2060 2200 2031 1696 2198 2072 2098 1882 1649 1563 1491 1672 1701 1695 1755 1775 1958 1990 2023 2072 2108 2288 2193 2056 1932 1821 1934 2232 2428 2571 2467 2182 2283 2214 2070 1823 1858 1741 1555 1649 1979 1722 958 515 407 339 235 260 290
0 0 0 0 0 0 0 0 0 0 0 0 0 0 71 72 76 42 42 30 134 20 0 48 19 0 0 0 0 0 60 246 386 867 1322 2380 2149 2006 2143 2389 2314 2043 2042 1895 1785 1454 1450 1532 1524 1605 1478 1604 1626 1748 1835 2043 2029 1870 1837 2048 2089 1861 1720 1796 2033 2321 2413 2429 2194 2327 2464 2530 2488 2276 2218 2264 2213 2497 2822 2494 1344 644 687 660 549 288
46 4 4 0 0 0 0 0 0 0 0 0 0 0 7 43 67 15 6 4 12 0 0 4 67 0 0 6 5 873 778 964 1830 2067 1773 1529 2117 2232 2175 2119 2134 2242 2053 1934 1772 1406 1142 1152 1202 1355 1236 1231 1177 1237 1500 1727 1725 1816 2042 1943 1686 1816 1886 1710 1757 1894 2170 2330 2534 2524 2693 2799 2800 2738 2616 2830 3133 3298 3477 3276 2635 1794 1422 1253 982 913
13 187 0 0 0 0 0 0 0 0 0 0 0 0 0 0 0 0 0 0 0 0 0 2 28 33 502 338 1285 1634 1769 1638 1360 1056 1392 2486 2062 1892 2173 2026 2371 2484 2148 1798 1661 1340 1114 1009 975 1032 1039 979 947 1004 1103 1290 1394 1516 1636 1758 1838 1873 1690 1599 1660 1748 2134 2226 2363 2593 2823 2826 3004 3129 2977 3010 3295 3581 3737 3746 3186 2649 2366 2128 1978 1747
0 920 6 5 0 0 0 0 0 0 0 0 0 0 0 0 0 0 0 0 0 0 0 0 21 8 1184 1285 1623 1913 1726 1260 1164 1701 2066 2016 1776 2217 1994 1834 2144 2592 2183 1859 1466 1162 1084 1061 914 808 692 825 865 858 984 1003 990 1178 1366 1547 1640 1771 1900 1902 1765 1627 1892 2068 2204 2596 2733 2833 2974 3082 3259 3278 3344 3514 3697 3683 3547 3315 3090 2806 2417 2698
0 208 9 0 0 0 0 0 0 0 0 0 0 0 0 0 0 0 0 12 5 0 0 3 1 128 1118 1733 1218 1590 1331 1146 1556 1349 1547 1752 1899 1894 1934 1853 2320 2175 2137 1686 1156 1054 1007 897 748 763 835 903 886 834 787 760 813 962 1089 1192 1367 1631 1597 1796 1872 1945 1895 1914 2262 2212 2490 2744 2922 3010 3307 3504 3439 3503 3479 3646 3661 3555 3319 2984 2840 2531
0 0 2 0 0 0 0 0 0 0 0 0 534 333 0 0 0 0 0 0 7 17 0 124 646 811 1406 1337 832 1445 1516 1501 1586 2131 2291 1940 1862 1925 1901 2040 1949 2085 1842 1439 1008 920 946 820 746 762 786 672 673 645 597 446 408 479 498 548 701 1009 1452 1558 1494 1723 1918 1914 1919 2160 2276 2461 2703 2760 3030 3508 3594 3587 3537 3443 3575 3532 3302 3056 3023 2915
14 0 0 1 0 0 0 0 0 0 0 696 192 693 162 0 0 0 0 0 42 333 306 534 562 838 812 1022 1475 1658 1895 2239 2405 1915 1789 1671 2403 1963 2231 2018 1805 1804 1769 1260 789 796 873 731 728 654 597 568 481 374 308 341 356 339 242 280 338 532 805 1040 1322 1520 1536 1756 1957 1965 2174 2300 2335 2684 2808 3262 3624 3555 3583 3631 3643 3694 3460 3181 3177 3285
0 4 0 18 1 8 9 0 0 0 509 85 511 419 527 62 17 5 3 0 48 127 572 488 458 1337 2066 2533 2646 2496 2529 2163 1952 2278 2194 2186 1866 1971 1943 1794 1773 1574 1148 1060 833 882 800 675 594 540 448 333 266 224 192 203 225 174 162 149 200 339 506 769 1071 1345 1617 1517 1672 2069 2077 2086 2157 2283 2674 3001 3389 3662 3727 3616 3572 3509 3491 3452 3426 3455
5 0 0 1 0 0 0 0 0 117 24 65 62 305 48 11 13 5 0 0 5 363 495 425 1704 1671 2041 2191 2166 2141 2123 1741 1515 1437 1736 2010 1692 1646 1686 1700 1402 1208 857 950 974 868 768 632 483 382 241 210 212 205 230 190 152 139 131 141 160 214 320 418 713 1017 1333 1584 1705 1707 1968 2067 2182 2235 2436 2882 2981 3408 3614 3472 3332 3121 3239 3451 3616 3801
32 12 0 0 1 0 0 0 0 0 0 0 0 0 0 0 0 0 0 0 124 389 531 779 1637 1604 2143 2198 2176 2108 2002 1509 715 676 1839 1780 1768 1549 1355 1227 1054 930 908 887 838 708 660 564 406 266 178 258 226 215 210 177 216 188 185 184 199 201 204 263 417 743 955 1216 1548 1707 1690 1877 2063 2242 2385 2517 2734 2868 3133 3328 3309 3242 3206 3489 3639 3581
59 181 72 0 0 0 0 0 0 0 0 0 1 22 92 378 54 254 0 0 246 509 646 1021 1352 1562 2122 2131 2330 2268 1264 379 0 395 1323 2205 1972 1679 1707 1376 1138 920 916 824 625 652 566 397 297 225 230 259 224 248 186 191 223 181 159 181 208 245 242 225 276 417 694 942 1092 1396 1605 1629 1852 2043 2116 2335 1869 2263 2757 3026 3175 3238 3255 3375 3427 3376
47 25 72 18 0 0 0 0 0 0 10 356 288 39 342 265 196 82 0 0 464 553 657 925 1462 1725 1947 2223 2287 1954 725 0 0 1323 1545 2090 1975 1806 1740 1383 1042 893 760 626 562 466 329 320 270 280 233 226 209 174 166 182 180 157 156 178 240 299 343 368 373 378 420 553 835 1089 1216 1492 1616 1763 1958 2167 2370 2568 2678 2707 2867 2988 3187 3325 3085 2946
55 44 4 0 0 0 4 9 0 1 238 418 931 531 400 346 132 2 0 0 436 599 596 912 1504 1746 2288 2530 1832 1411 743 1077 1238 1034 1612 1846 1653 1696 1375 1063 885 782 688 505 406 278 235 237 245 174 159 155 169 177 154 177 165 181 210 224 263 318 410 476 580 573 634 592 504 690 959 1233 1446 1632 1809 2045 2387 2777 2152 2183 2680 2992 3097 3244 2923 2508
167 112 44 1 0 0 20 6 0 11 334 414 580 644 533 334 0 0 1308 1772 567 956 972 878 1340 1884 2410 2464 1461 597 1410 714 946 1158 1452 1482 1386 1615 1094 950 774 618 558 475 313 179 163 174 188 150 115 153 170 162 167 147 141 183 238 256 297 385 385 368 446 490 626 774 578 521 556 888 1256 1355 1527 1665 2034 1489 1689 2644 2718 2795 2882 2533 1936 1506
154 60 83 28 49 16 22 51 29 0 424 334 1064 991 862 179 0 845 1482 1526 876 1020 1063 1169 1552 2029 2033 1666 1156 1425 744 739 964 1547 1589 1290 1229 1264 1145 937 899 684 533 420 293 205 107 189 148 65 147 174 182 118 113 162 176 150 184 248 295 270 229 247 302 427 649 758 726 766 439 576 862 1296 1428 1440 1704 2297 2803 2907 2668 2419 1996 1720 1279 1085
69 70 99 115 40 146 214 206 96 258 543 922 508 303 424 230 896 558 478 882 1991 1033 1107 1536 1840 2061 1570 1000 1137 926 867 1364 1683 1787 1702 1391 1353 1238 994 898 861 663 475 264 122 223 116 159 83 84 204 223 178 134 91 143 173 191 220 224 216 242 242 234 285 309 575 791 703 545 542 550 693 1018 1232 1415 1558 1857 2311 2360 2051 1410 1203 1156 1008 1004
238 324 522 499 410 173 186 321 1001 789 890 736 606 1423 2088 850 559 1551 708 520 1337 1269 1383 1190 2135 1807 1043 885 966 1155 1205 1268 1821 1664 1743 1581 1233 1052 911 912 726 516 296 201 140 89 82 77 65 145 234 188 121 66 55 86 194 194 221 215 228 258 252 245 279 354 437 681 893 930 756 675 667 886 1165 1129 1399 1821 1913 1634 1240 1113 1006 836 871 1154
191 806 844 374 356 544 333 140 331 536 515 744 619 1073 932 1028 359 607 1019 490 708 1870 1362 1078 1134 963 1067 1288 1065 1173 1149 1805 2151 1804 1746 1504 1244 1000 902 757 532 404 153 118 216 91 61 80 152 236 232 149 67 23 80 74 188 164 124 83 85 64 168 261 302 388 431 467 470 626 713 873 849 906 1090 1318 1396 1452 883 920 861 830 725 716 816 913
534 444 240 168 480 296 223 536 755 1159 1193 847 824 834 1377 1185 1646 1255 1448 878 1481 1312 1049 1082 858 1175 1336 1520 1357 1315 1859 2210 2122 1959 1707 1426 1152 927 718 705 638 291 213 306 106 40 104 164 201 235 167 116 51 48 59 86 88 54 47 50 46 44 171 280 342 387 422 394 458 436 286 421 372 409 538 603 842 859 731 672 560 570 640 618 646 745
468 244 281 189 311 308 294 646 452 402 1140 1143 1056 839 900 826 1315 1540 2482 1356 1452 1205 1706 1977 1551 1399 1589 1391 1495 1644 2243 2117 2023 1946 1594 1341 1049 919 859 618 461 250 204 94 102 85 194 153 120 108 56 33 20 54 115 103 59 20 14 14 10 8 85 174 225 284 365 267 331 414 467 396 321 211 290 355 465 609 618 653 628 459 381 472 494 610
582 87 261 223 209 403 291 278 325 642 436 750 1498 1116 1405 1607 1295 1332 1827 1475 1628 1919 2056 1948 1672 1817 1415 1486 1848 2026 2248 2025 1952 1850 1470 1124 888 780 876 661 322 224 119 166 109 69 200 84 64 27 30 19 14 76 124 68 30 29 282 277 282 309 326 365 327 302 310 260 249 271 322 385 383 277 115 280 483 650 595 641 582 501 471 402 524 618
174 191 192 342 341 266 286 534 532 554 505 684 1052 1352 1447 1241 1541 1714 1823 1295 1226 1706 1910 2022 2286 2218 2036 2214 2111 1896 2128 2032 1948 1841 1479 1037 895 1012 761 356 170 110 102 75 56 83 62 43 34 8 3 13 47 161 90 57 15 5 21 151 290 117 280 336 366 358 311 249 201 175 104 213 284 322 426 269 253 369 512 456 322 352 388 357 277 322
204 667 417 428 344 436 723 366 872 709 792 1017 1297 1042 1433 1241 1110 1258 1496 1464 1518 1855 1930 2184 2326 2499 2408 2198 1890 1735 1994 2010 1775 1486 1196 876 868 774 536 225 126 95 40 45 29 35 48 9 1 255 240 3 39 109 66 60 7 6 5 4 5 4 7 7 136 260 260 272 217 204 163 153 80 155 243 338 378 261 251 274 283 260 214 365 448 401
Wind_Speed
nan nan nan nan nan nan nan nan nan nan nan nan nan nan nan nan 11 13 11 7 5 6 5 7 8 7 13 10 10 10 9 5 3 4 5 6 5 3 4 5 5 5 4 4 2 1 1 3 4 4 4 3 2 1 3 2 3 2 2 3 2 5 6 7 8 8 8 6 6 6 6 6 7 8 8 9 11 11 11 10 11 11 11 10 10 10
nan nan nan nan nan nan nan nan nan nan nan nan nan nan nan nan 11 13 11 7 6 4 11 5 7 4 6 4 2 5 8 3 1 1 1 2 2 3 3 4 6 5 5 4 1 1 1 2 5 5 5 4 3 1 2 1 2 2 2 1 1 4 6 7 8 8 8 6 7 6 6 6 6 7 9 9 10 11 11 12 13 11 11 10 10 10
nan nan nan nan nan nan nan nan nan nan nan nan nan nan nan nan 15 13 11 9 7 4 7 8 1 3 4 3 4 3 6 3 1 1 1 1 1 2 3 4 5 4 4 2 1 1 1 3 4 5 5 4 3 1 1 1 1 2 1 2 2 4 6 7 7 7 7 6 6 6 6 7 6 7 8 9 9 9 9 10 11 11 11 10 10 9
nan nan nan nan nan nan nan nan nan nan nan nan nan nan nan nan nan 10 11 8 5 6 11 6 4 2 2 4 8 7 5 1 3 2 0 3 2 1 2 2 3 3 3 1 1 3 2 3 3 4 5 5 4 2 1 1 2 1 1 1 2 3 5 6 6 7 6 6 6 8 6 7 7 7 8 9 9 11 10 9 9 10 10 10 9 8
nan nan nan nan nan nan nan nan nan nan nan nan nan nan nan nan nan 13 13 9 8 4 8 9 4 4 4 5 6 8 7 4 5 4 6 5 4 4 3 4 3 3 3 2 0 1 3 3 3 3 5 5 3 2 2 0 1 2 1 1 1 3 4 6 6 5 6 6 4 5 6 6 7 8 8 7 7 8 9 9 8 8 8 8 10 8
nan nan nan nan nan nan nan nan nan nan nan nan nan nan nan nan 13 14 17 11 5 6 6 10 9 nan 11 4 1 7 8 7 7 6 7 9 6 3 3 5 6 4 5 4 3 2 2 2 4 3 4 4 3 2 2 1 2 0 1 1 1 4 4 5 5 5 6 5 3 2 2 4 5 5 6 6 6 6 6 8 7 6 6 6 7 8
nan nan nan nan nan nan nan nan nan nan nan nan nan nan nan nan 13 13 14 6 nan nan 12 6 11 nan nan 11 8 8 5 5 7 7 6 8 9 8 7 5 6 5 4 5 4 4 2 4 3 2 3 3 3 3 3 2 3 2 3 2 1 2 4 4 5 4 6 5 3 1 2 2 3 4 5 6 6 5 5 7 7 7 6 6 7 6
nan nan nan nan nan nan nan nan nan nan nan nan nan nan nan 14 10 12 12 5 12 16 15 8 10 nan nan 12 13 10 4 5 6 7 7 7 7 8 9 8 3 5 4 6 6 5 3 4 3 2 2 3 4 4 3 3 4 3 4 4 2 3 3 3 5 4 4 4 4 2 2 2 3 3 4 5 7 8 8 6 6 6 6 5 7 8
nan nan nan nan nan nan nan nan nan nan nan 15 15 nan 11 9 10 11 8 5 8 5 8 13 10 8 nan 14 14 12 10 6 4 5 7 7 8 7 8 10 7 3 5 4 7 6 5 4 3 2 1 2 2 4 4 4 4 5 4 4 4 4 4 4 4 3 3 3 4 4 3 4 5 5 5 6 6 6 6 6 6 7 7 5 5 7
nan nan nan nan nan nan nan nan nan nan nan 12 11 9 12 12 9 8 6 4 4 3 nan 10 9 nan nan nan 13 15 14 14 12 9 6 6 7 6 6 10 12 7 7 6 5 6 6 4 2 2 3 2 1 4 5 5 5 5 5 5 5 5 5 5 5 4 3 2 4 4 4 5 6 6 8 8 7 7 6 5 5 6 7 6 4 4
nan nan nan nan nan nan nan nan nan nan 10 12 8 7 9 10 10 5 3 2 4 nan nan 10 7 10 nan nan nan nan 18 21 16 15 14 10 8 7 6 8 12 10 6 7 5 4 7 6 4 5 4 2 0 4 6 6 6 6 5 5 5 5 5 6 6 5 5 4 4 4 4 5 5 6 8 8 7 7 6 6 5 5 5 6 6 5
nan nan nan nan nan nan nan nan nan nan 9 nan nan nan nan nan 6 4 3 3 nan nan 13 11 7 4 nan nan nan 17 19 20 18 17 15 14 12 9 8 7 9 12 7 2 2 3 6 7 7 8 5 2 2 4 7 6 7 7 7 6 5 5 5 6 6 6 5 5 5 4 4 4 5 6 7 8 7 7 7 6 6 7 6 5 4 5
nan nan nan nan nan nan nan nan 7 8 7 nan nan nan nan nan nan nan 3 nan nan 8 12 14 9 3 4 nan nan 14 16 19 20 18 18 16 13 11 10 8 7 9 10 7 3 2 4 6 8 12 9 5 7 6 4 5 7 8 8 7 5 5 5 5 5 6 5 5 5 4 4 5 5 5 6 8 8 9 9 8 7 6 6 5 4 3
nan nan nan nan nan nan nan nan nan nan nan nan nan nan nan nan nan nan nan nan nan 13 14 12 14 nan nan nan nan nan 16 17 19 19 19 19 17 14 12 11 8 7 7 7 6 5 4 5 7 13 10 10 10 8 5 4 7 9 9 8 6 5 6 6 5 5 5 5 5 5 4 5 5 5 6 7 8 8 9 9 8 6 5 4 3 2
nan nan nan nan nan nan nan nan nan nan nan nan nan nan nan nan nan nan nan nan nan 15 13 13 6 nan nan 15 13 17 18 17 17 18 20 19 19 18 15 13 11 8 7 6 6 7 7 6 6 9 12 14 13 11 6 7 8 9 9 10 7 6 6 5 4 5 4 4 4 4 4 4 4 4 5 6 8 9 9 8 6 6 6 5 5 5
nan nan nan nan nan nan nan nan nan nan nan nan nan nan nan nan nan nan nan nan nan nan nan 11 nan nan nan 9 13 12 16 16 16 17 16 20 21 21 18 17 15 13 10 7 6 7 7 8 8 9 11 12 13 14 11 11 11 10 10 10 9 7 6 6 5 5 4 3 4 5 4 2 2 4 5 6 7 8 8 7 7 7 6 7 8 7
nan nan nan nan nan nan nan nan nan nan nan nan nan nan nan nan nan nan nan nan nan nan nan nan nan nan nan nan 9 11 12 15 12 13 15 18 20 21 22 22 20 18 16 12 9 7 8 9 9 9 10 11 12 14 13 13 13 13 12 11 11 10 8 6 6 5 4 4 4 4 4 2 1 1 2 3 3 4 5 6 7 7 6 6 7 8
nan nan nan nan nan nan nan nan nan nan nan nan nan nan nan nan nan nan nan nan nan nan 7 nan nan nan nan nan 10 8 7 10 11 10 14 15 14 18 22 23 23 21 19 16 13 10 9 9 10 10 11 11 12 13 14 15 14 13 13 11 11 12 11 9 7 6 6 5 4 4 4 2 1 2 1 2 2 3 5 5 6 7 6 6 7 8
nan nan nan nan nan nan nan nan nan nan nan nan nan nan nan nan nan nan nan nan nan nan nan nan nan nan nan nan 11 9 5 8 9 12 10 12 13 15 17 22 24 24 23 21 19 16 13 11 11 11 12 13 12 13 17 18 16 14 13 12 9 9 12 10 9 8 7 7 7 6 5 4 2 2 3 3 4 5 4 4 5 5 6 7 7 8
nan nan nan nan nan nan nan nan nan nan nan nan nan nan nan nan nan nan nan nan nan nan nan nan nan nan nan nan nan nan 10 10 11 11 13 14 14 12 14 17 21 25 27 26 24 21 18 14 12 11 12 14 15 17 17 17 16 13 13 11 9 9 10 9 9 10 7 7 7 7 7 5 3 2 3 4 4 4 4 4 5 5 5 6 8 7
nan nan nan nan nan nan nan nan nan nan nan nan nan nan nan nan nan nan nan nan nan nan nan nan nan nan nan nan nan 11 11 11 12 13 13 13 14 15 15 16 17 21 24 26 26 25 23 20 17 15 16 15 15 13 13 14 14 14 16 13 9 11 11 9 10 10 9 8 8 7 6 7 6 2 2 2 3 4 4 4 5 5 6 7 7 8
nan nan nan nan nan nan nan nan nan nan nan nan nan nan nan nan nan nan nan nan nan nan nan nan nan nan nan 12 nan 11 12 12 12 12 13 15 16 16 15 16 17 18 20 23 25 26 26 24 21 19 16 14 13 11 11 13 15 15 18 14 9 10 10 9 11 13 12 10 9 7 7 6 7 5 3 2 2 2 3 4 5 5 6 6 7 7
nan nan nan nan nan nan nan nan nan nan nan nan nan nan nan nan nan nan nan 9 nan nan nan nan nan nan nan 16 12 13 13 12 13 12 12 16 16 17 16 16 17 16 18 20 22 24 25 25 23 22 19 16 14 13 12 13 14 15 15 13 13 11 11 10 11 14 14 13 11 8 7 7 7 6 4 2 3 2 3 4 4 5 5 5 6 6
nan nan nan nan nan nan nan nan nan nan nan nan nan nan nan nan nan nan nan nan nan nan nan nan nan nan 17 16 14 15 13 13 13 13 13 15 16 17 17 16 17 15 17 18 19 21 23 24 24 23 22 20 18 15 13 13 13 14 14 16 16 14 13 14 13 14 14 14 12 10 8 8 7 6 6 5 5 4 4 5 5 5 5 6 6 6
nan nan nan nan nan nan nan nan nan nan nan nan nan nan nan nan nan nan nan 9 nan nan nan nan nan nan 16 17 17 15 14 11 12 15 15 15 16 16 16 16 16 15 15 17 19 20 20 21 22 22 22 22 21 19 17 14 14 13 14 16 18 17 16 15 15 14 14 14 13 11 10 8 8 7 7 7 7 5 4 5 nan 7 6 7 7 8
nan nan nan nan nan nan nan nan nan nan nan nan nan 11 8 nan nan nan nan nan nan nan nan nan nan nan 19 19 18 16 15 11 12 15 17 16 15 14 16 16 16 16 16 17 19 20 20 20 20 21 22 23 23 23 22 19 15 15 15 15 17 18 19 18 16 14 14 14 14 12 10 10 9 8 8 8 8 8 7 7 6 nan 8 8 8 9
nan nan nan nan nan nan nan 15 nan nan nan nan nan nan nan nan nan nan nan 8 nan 15 nan nan nan nan nan nan 16 15 14 11 13 14 14 15 15 15 16 17 17 17 17 18 19 21 20 20 20 21 21 23 24 24 24 22 19 16 16 16 17 18 20 20 17 15 15 14 13 13 11 10 11 11 11 11 11 11 11 9 9 8 8 10 10 9
nan nan nan nan nan nan nan nan nan nan nan nan nan nan nan nan nan nan nan 11 17 nan nan nan nan nan nan nan nan nan 15 12 12 15 15 14 16 17 18 18 17 18 19 18 19 21 22 21 21 21 22 23 25 26 25 23 21 18 16 17 19 20 21 22 19 16 15 15 13 13 12 13 13 13 13 14 15 14 13 11 10 10 11 11 11 11
nan nan nan nan nan nan nan nan nan nan nan nan nan nan nan nan nan nan nan nan 17 nan nan nan nan nan nan nan nan nan nan 13 14 15 17 18 19 19 18 18 18 18 19 19 20 21 22 22 22 23 23 24 25 26 26 25 23 21 18 16 18 20 21 23 22 18 16 14 13 13 14 15 15 15 16 15 15 16 16 15 13 12 12 13 13 13
nan nan nan nan nan nan nan nan nan nan nan nan nan nan nan nan nan nan nan nan nan nan nan nan nan nan nan nan nan 20 16 16 19 20 19 17 18 20 19 19 19 18 18 19 19 20 20 22 23 23 23 23 23 23 25 26 25 23 20 18 17 16 19 22 23 22 18 15 14 15 16 16 16 17 17 17 17 17 17 17 16 14 13 13 13 14
nan 25 nan nan nan nan nan nan nan nan nan nan nan nan nan nan nan nan nan nan nan nan nan nan nan nan 23 25 26 24 18 17 19 20 20 20 19 19 19 20 21 19 19 19 19 19 19 20 21 22 23 23 22 22 22 24 25 24 23 21 19 18 16 17 20 23 22 18 16 16 17 17 17 17 17 18 18 18 17 18 18 17 15 15 15 15
nan 26 nan nan nan nan nan nan nan nan nan nan nan nan nan nan nan nan nan nan nan nan nan nan nan nan 25 27 28 27 21 18 18 20 22 21 20 19 18 20 21 21 20 21 19 19 19 20 21 23 23 23 21 21 22 23 24 23 22 22 20 18 18 16 17 20 23 22 19 18 17 18 18 17 17 18 18 18 18 19 18 18 17 17 16 17
nan 24 nan nan nan nan nan nan nan nan nan nan nan nan nan nan nan nan nan nan nan nan nan nan nan 22 29 26 27 27 23 21 19 19 21 23 21 20 18 18 20 21 21 22 21 19 19 19 20 22 24 24 23 21 21 23 24 24 26 24 24 22 18 15 15 18 22 24 24 21 19 18 18 17 17 18 18 20 20 19 19 18 18 17 18 18
nan nan nan nan nan nan nan nan nan nan nan nan 24 19 nan nan nan nan nan nan nan nan nan 17 24 28 26 25 24 28 25 23 20 21 22 22 23 21 19 18 18 20 22 22 22 21 20 19 20 22 23 25 25 25 24 22 21 22 23 24 24 22 21 20 16 15 18 22 24 25 23 21 19 18 17 18 19 20 21 20 20 19 20 20 20 20
nan nan nan nan nan nan nan nan nan nan nan 28 25 25 21 nan nan nan nan nan nan 16 13 16 20 23 25 23 26 27 27 27 24 24 23 23 22 22 22 20 19 20 21 22 22 24 23 21 21 21 22 25 26 25 23 21 21 22 23 23 22 21 19 20 21 18 17 18 22 24 26 25 22 19 18 18 19 20 20 20 21 21 22 22 22 22
nan nan nan nan nan nan nan nan nan nan 28 nan 29 28 24 nan nan nan nan nan nan 13 16 15 19 23 24 27 28 29 28 27 24 23 23 24 23 23 22 22 21 19 19 22 24 24 23 23 22 22 23 23 23 24 24 22 22 21 21 23 22 21 20 20 18 18 19 18 19 21 24 26 25 22 20 19 20 20 20 20 21 23 24 25 25 25
nan nan nan nan nan nan nan nan nan 30 nan nan nan 22 nan nan nan nan nan nan nan 17 19 19 22 23 24 25 26 27 27 25 21 22 24 24 24 22 22 23 22 19 18 19 21 22 23 23 23 22 22 21 21 23 24 23 22 20 20 21 21 21 21 20 19 17 16 18 19 19 22 25 27 26 24 22 20 19 19 20 21 22 25 26 26 28
nan nan nan nan nan nan nan nan nan nan nan nan nan nan nan nan nan nan nan nan 19 18 21 22 23 25 24 25 25 26 24 20 17 19 25 25 24 23 22 21 22 19 18 19 20 20 21 23 23 21 21 21 21 22 23 24 23 21 21 21 21 21 20 20 20 20 18 16 16 17 19 23 26 28 27 25 21 20 21 21 23 23 25 26 27 28
nan 25 nan nan nan nan nan nan nan nan nan nan nan nan nan 19 nan 21 nan nan 22 19 22 22 24 25 25 25 26 25 20 14 nan 22 26 26 26 23 21 21 22 20 20 18 19 20 21 21 21 20 20 21 21 23 24 25 24 23 22 22 22 21 21 20 21 20 19 18 17 17 17 19 22 26 27 26 24 24 23 24 25 26 27 27 28 28
nan nan nan nan nan nan nan nan nan nan nan 28 28 nan 23 22 25 nan nan nan 23 20 20 21 24 24 25 25 25 22 16 nan nan 25 26 26 25 24 20 21 21 20 20 19 20 21 19 19 18 19 20 21 23 24 24 26 26 25 24 23 23 21 21 21 20 20 20 21 20 19 17 17 18 21 24 25 27 28 28 29 30 30 30 30 28 28
nan nan nan nan nan nan nan nan nan nan 31 34 28 27 27 27 24 nan nan nan 20 20 19 19 21 24 25 25 24 20 19 22 25 26 26 26 25 23 21 21 20 20 20 20 22 21 19 19 19 19 19 20 22 23 24 26 26 27 27 26 24 23 23 24 24 22 22 21 21 20 19 18 17 17 20 24 28 31 33 34 34 34 34 34 33 34
29 29 nan nan nan nan nan nan nan nan 31 34 25 25 30 26 nan nan 21 23 22 20 19 19 20 23 24 24 22 20 26 27 27 26 25 23 23 23 20 20 20 20 21 22 21 20 20 19 18 18 18 19 21 23 24 26 27 27 28 27 27 27 27 25 24 24 23 21 19 19 19 19 18 19 21 23 26 28 30 34 36 38 38 39 38 36
34 nan nan nan nan nan nan nan nan nan 35 31 29 25 24 16 nan 25 27 24 23 20 21 20 20 22 22 22 22 26 27 28 26 25 24 22 22 21 20 19 20 20 21 20 20 21 20 19 19 nan 18 18 20 21 23 25 26 28 29 29 30 30 29 28 26 25 23 22 22 21 19 19 19 20 22 23 25 27 30 35 39 41 42 43 44 42
nan nan nan 30 nan 28 32 29 nan 33 37 36 29 22 25 21 31 30 29 28 24 22 22 22 21 23 21 22 25 26 27 29 27 25 23 22 22 21 20 19 19 19 19 20 20 21 20 18 nan nan 17 17 18 19 nan 24 26 28 29 30 32 31 30 30 29 27 25 23 24 23 21 20 20 19 20 21 24 25 26 32 36 41 44 46 48 47
39 36 39 40 44 31 33 38 44 37 35 29 26 34 27 27 32 31 27 30 28 25 25 23 25 24 22 24 26 27 27 27 27 25 23 22 21 20 19 19 19 19 18 20 20 nan nan nan nan 16 16 17 17 nan nan nan 23 26 29 33 33 33 32 32 32 31 28 26 26 26 24 24 21 21 21 22 23 24 28 31 35 41 43 47 49 48
44 41 39 38 37 36 31 34 37 37 36 29 29 34 33 33 33 32 29 32 28 29 26 25 26 25 25 25 26 27 26 29 28 26 25 22 20 20 19 18 18 18 18 18 20 nan nan nan 16 16 16 16 nan nan nan nan 20 23 28 nan nan nan 34 34 34 34 33 31 31 29 27 24 27 28 27 25 25 27 30 31 35 38 40 45 47 48
39 38 36 34 39 36 39 43 42 41 40 35 29 33 35 34 35 33 32 33 32 31 29 27 26 26 25 26 26 27 29 30 29 28 26 23 20 19 18 18 20 20 19 19 21 nan 18 18 18 18 17 17 nan nan nan nan nan nan nan nan nan nan 37 37 37 39 39 39 37 37 37 38 36 38 40 41 41 41 40 40 38 39 39 41 44 46
34 35 34 33 33 34 37 40 40 38 36 35 33 33 33 34 35 35 34 35 34 32 29 28 27 27 26 26 26 27 29 29 29 28 26 23 20 19 18 18 19 19 20 nan 20 nan 19 19 18 18 nan nan nan nan 16 17 nan nan nan nan nan nan nan 39 40 41 43 44 43 41 40 40 45 44 41 40 41 43 44 44 45 45 46 42 40 42
40 nan 33 38 34 34 34 34 37 37 32 31 36 34 38 38 36 37 35 36 36 33 31 29 26 27 26 27 28 29 30 30 29 28 26 24 21 19 19 19 18 18 18 19 20 nan 21 nan nan nan nan nan nan nan 18 nan nan nan 21 24 29 34 39 41 43 43 44 45 45 45 44 43 41 42 44 45 46 46 45 45 47 50 50 48 44 44
26 25 30 34 34 33 38 47 47 40 40 45 44 41 37 39 36 36 36 35 34 32 31 32 31 30 29 30 30 29 30 30 29 28 26 24 21 21 21 19 18 18 19 nan nan nan nan nan nan nan nan nan nan 18 nan nan nan nan nan 22 26 32 36 39 40 42 42 43 45 45 45 43 43 43 42 44 46 46 47 53 54 53 53 50 56 59
25 31 30 28 31 38 48 48 47 42 40 44 47 46 41 38 36 34 34 34 33 32 32 34 35 34 33 32 29 29 30 30 30 28 25 23 22 22 21 19 19 nan nan nan nan nan nan nan nan 21 22 nan nan 20 nan nan nan nan nan nan nan nan nan nan 38 38 39 41 42 44 44 44 nan 43 43 44 46 49 49 48 51 55 60 63 61 60
Wind_Direction
nan nan nan nan nan nan nan nan nan nan nan nan nan nan nan nan 244 245 238 258 231 212 235 266 258 204 188 196 245 198 178 160 189 191 204 186 184 229 256 255 250 244 210 247 222 242 282 291 274 230 201 227 253 282 305 304 276 260 223 217 172 153 157 149 140 135 127 126 117 113 100 101 101 103 101 104 112 122 133 148 154 153 146 145 148 151
nan nan nan nan nan nan nan nan nan nan nan nan nan nan nan nan 233 240 237 249 259 178 259 272 309 51 135 183 264 184 155 128 341 284 219 206 152 180 207 229 242 242 226 248 220 232 268 269 277 242 202 214 258 258 332 347 287 276 259 247 191 148 151 147 141 141 134 133 122 117 113 116 113 109 103 106 113 121 142 149 156 149 160 154 155 160
nan nan nan nan nan nan nan nan nan nan nan nan nan nan nan nan 240 251 249 242 240 209 250 269 190 28 31 326 325 70 110 138 222 168 227 293 120 170 178 204 224 224 245 250 5 324 268 287 287 248 217 206 223 267 1 345 314 308 261 196 186 158 154 156 154 148 148 139 133 130 138 133 132 118 109 110 112 123 134 141 149 159 165 157 159 163
nan nan nan nan nan nan nan nan nan nan nan nan nan nan nan nan nan 257 267 259 248 191 214 235 186 229 331 341 340 3 49 64 273 301 216 210 206 137 134 177 219 212 243 301 37 352 323 285 275 249 239 217 208 225 241 351 349 62 213 205 175 181 160 171 179 162 165 160 165 155 145 142 142 125 126 136 131 126 132 137 150 158 166 161 160 165
nan nan nan nan nan nan nan nan nan nan nan nan nan nan nan nan nan 208 258 265 247 210 199 184 190 218 296 330 351 353 345 327 298 294 317 291 224 197 165 148 170 205 224 190 237 320 323 293 271 244 240 239 204 213 252 288 327 142 358 302 211 202 185 189 204 189 192 199 182 177 163 145 150 145 128 115 114 117 126 130 138 152 162 172 162 175
nan nan nan nan nan nan nan nan nan nan nan nan nan nan nan nan 241 250 264 278 277 271 259 181 198 nan 230 211 339 302 325 338 324 321 323 323 320 287 237 176 168 187 211 215 187 252 287 274 241 234 241 242 209 195 238 233 278 262 293 320 257 211 203 205 229 218 215 219 209 183 141 116 117 120 120 120 124 127 126 121 137 145 152 166 164 170
nan nan nan nan nan nan nan nan nan nan nan nan nan nan nan nan 264 273 280 268 nan nan 251 202 187 nan nan 218 236 269 303 334 324 338 335 322 319 310 284 246 180 172 221 239 218 233 273 278 266 239 222 220 205 195 224 237 265 280 284 300 333 229 210 215 235 240 222 237 227 198 112 134 136 145 147 147 150 150 141 143 150 153 156 162 151 157
nan nan nan nan nan nan nan nan nan nan nan nan nan nan nan 260 270 281 290 256 225 240 254 248 201 nan nan 236 235 239 244 293 317 332 342 333 328 322 311 299 234 179 197 244 250 254 251 283 299 291 258 213 203 199 212 237 255 276 276 288 293 234 221 217 239 250 233 236 240 240 159 196 177 180 176 175 166 166 167 169 160 159 159 168 146 148
nan nan nan nan nan nan nan nan nan nan nan 225 237 nan 249 259 269 286 294 268 244 223 253 259 233 207 nan 248 239 237 234 260 310 334 337 343 339 334 324 322 316 226 203 232 255 262 277 297 328 307 293 259 216 216 198 216 238 256 261 270 279 257 250 239 263 259 257 222 236 231 222 206 212 208 211 205 190 180 175 166 170 170 172 182 161 143
nan nan nan nan nan nan nan nan nan nan nan 250 248 240 253 261 281 292 293 299 318 78 nan 252 232 nan nan nan 247 236 225 235 243 265 297 321 328 334 325 323 325 292 221 220 245 261 274 290 314 299 279 273 221 234 215 208 225 248 249 262 281 276 256 256 272 264 270 246 227 227 219 236 233 226 217 211 215 204 197 185 177 188 179 173 178 150
nan nan nan nan nan nan nan nan nan nan 224 277 291 282 278 285 286 306 326 17 62 nan nan 247 244 201 nan nan nan nan 235 227 229 249 253 260 283 313 325 325 319 314 261 223 232 258 275 285 282 290 305 300 316 249 240 216 218 232 245 258 271 271 253 266 274 277 275 259 240 233 234 240 245 238 236 229 226 217 215 202 201 204 203 183 176 162
nan nan nan nan nan nan nan nan nan nan 313 nan nan nan nan nan 320 350 330 68 nan nan 263 264 255 208 nan nan nan 236 245 236 227 229 232 245 258 273 303 319 330 329 320 263 237 265 285 295 307 289 285 293 260 246 253 229 230 222 233 243 260 260 257 258 269 276 275 264 261 243 254 252 243 234 231 235 227 224 217 212 210 211 208 207 189 164
nan nan nan nan nan nan nan nan 310 329 340 nan nan nan nan nan nan nan 272 nan nan 227 262 258 268 177 147 nan nan 250 245 241 232 227 228 230 243 256 273 302 316 328 337 335 330 294 287 296 304 298 296 291 285 249 230 256 243 233 230 240 250 256 259 252 266 276 276 271 270 262 262 264 245 234 222 223 220 219 220 214 211 216 210 213 191 173
nan nan nan nan nan nan nan nan nan nan nan nan nan nan nan nan nan nan nan nan nan 279 263 269 259 nan nan nan nan nan 252 240 233 233 232 233 234 238 249 265 286 310 322 322 323 322 302 290 290 288 298 300 280 288 302 275 253 243 235 240 241 247 253 244 247 268 274 275 268 269 263 262 255 236 226 220 216 222 224 220 206 205 212 217 198 185
nan nan nan nan nan nan nan nan nan nan nan nan nan nan nan nan nan nan nan nan nan 255 263 276 285 nan nan 245 245 248 250 247 245 238 238 237 238 238 232 240 252 270 296 301 295 298 303 294 286 282 292 284 283 293 300 288 275 257 247 249 244 241 248 251 250 250 274 267 272 260 257 254 248 242 224 213 211 215 223 216 219 211 199 206 221 207
nan nan nan nan nan nan nan nan nan nan nan nan nan nan nan nan nan nan nan nan nan nan nan 304 nan nan nan 284 264 263 264 262 253 250 245 240 242 240 236 238 241 248 255 270 282 283 292 290 283 272 272 281 289 297 292 297 290 281 269 267 266 258 252 253 254 249 261 268 262 267 258 250 234 224 218 215 212 212 206 211 200 218 206 194 206 212
nan nan nan nan nan nan nan nan nan nan nan nan nan nan nan nan nan nan nan nan nan nan nan nan nan nan nan nan 289 277 282 273 268 260 248 241 239 239 237 236 235 239 246 252 260 268 279 282 281 272 272 273 278 285 295 289 290 295 290 287 285 278 265 265 264 264 257 263 259 272 272 247 222 231 221 218 237 204 213 197 204 207 211 212 206 211
nan nan nan nan nan nan nan nan nan nan nan nan nan nan nan nan nan nan nan nan nan nan 273 nan nan nan nan nan 255 276 277 281 272 256 248 242 237 239 237 234 233 234 239 246 248 252 262 273 280 276 271 269 271 276 281 287 287 287 288 291 295 291 288 279 280 286 282 279 277 272 279 274 164 164 157 177 207 224 203 210 204 201 216 215 216 216
nan nan nan nan nan nan nan nan nan nan nan nan nan nan nan nan nan nan nan nan nan nan nan nan nan nan nan nan 280 278 255 266 258 247 242 251 240 233 240 239 234 232 233 238 246 249 250 258 266 271 270 268 266 274 279 280 282 280 285 289 292 296 295 292 280 283 275 285 268 266 282 297 286 155 162 175 182 189 198 193 214 207 207 213 218 216
nan nan nan nan nan nan nan nan nan nan nan nan nan nan nan nan nan nan nan nan nan nan nan nan nan nan nan nan nan nan 237 241 252 253 244 237 245 236 231 233 234 231 230 230 237 243 247 252 257 266 273 277 278 276 276 276 274 278 274 270 285 290 283 279 274 268 271 278 275 272 277 284 266 237 168 173 177 180 176 184 183 196 207 209 207 212
nan nan nan nan nan nan nan nan nan nan nan nan nan nan nan nan nan nan nan nan nan nan nan nan nan nan nan nan nan 237 245 247 248 253 252 248 243 242 235 233 234 233 232 232 230 236 243 244 251 257 263 270 273 272 272 271 267 264 262 273 293 296 295 283 269 260 254 248 263 276 280 282 286 293 223 160 173 165 164 173 179 181 190 207 202 200
nan nan nan nan nan nan nan nan nan nan nan nan nan nan nan nan nan nan nan nan nan nan nan nan nan nan nan 256 nan 248 251 257 252 251 256 255 256 251 245 238 234 235 235 232 233 234 236 240 244 252 256 258 264 266 273 275 270 266 267 260 272 285 286 284 271 259 250 241 234 254 269 276 273 272 244 185 185 173 158 167 183 179 184 189 199 199
nan nan nan nan nan nan nan nan nan nan nan nan nan nan nan nan nan nan nan 298 nan nan nan nan nan nan nan 277 265 259 258 255 260 262 258 263 259 257 251 245 240 239 237 235 232 233 236 241 243 244 248 251 256 260 266 270 273 270 264 258 260 268 273 268 262 260 256 250 240 234 238 256 265 263 262 224 194 186 174 186 183 187 180 181 189 207
nan nan nan nan nan nan nan nan nan nan nan nan nan nan nan nan nan nan nan nan nan nan nan nan nan nan 287 284 285 279 274 264 269 265 257 261 262 261 256 250 244 238 239 237 237 236 236 237 241 239 244 247 247 249 255 259 263 263 255 251 253 261 263 259 250 252 257 254 251 245 229 233 243 258 262 251 223 197 197 195 197 199 182 181 188 198
nan nan nan nan nan nan nan nan nan nan nan nan nan nan nan nan nan nan nan 262 nan nan nan nan nan nan 287 293 294 296 294 286 274 267 258 260 264 263 262 258 252 247 243 236 235 234 233 236 239 239 239 240 243 245 248 255 261 259 253 249 253 253 258 257 253 249 254 257 252 246 237 225 231 240 250 247 236 233 217 211 nan 206 200 194 194 202
nan nan nan nan nan nan nan nan nan nan nan nan nan 264 291 nan nan nan nan nan nan nan nan nan nan nan 285 296 304 307 299 292 276 264 263 258 259 261 259 259 257 254 248 239 233 231 230 232 233 234 234 235 237 238 242 243 249 257 252 249 247 247 249 252 254 253 253 252 251 243 238 239 231 232 243 247 242 234 230 226 222 nan 215 213 208 211
nan nan nan nan nan nan nan 255 nan nan nan nan nan nan nan nan nan nan nan 287 nan 293 nan nan nan nan nan nan 303 310 308 303 294 286 275 270 266 264 262 258 255 255 252 244 236 233 232 232 232 232 230 230 232 237 238 242 247 250 252 251 251 245 243 247 251 255 258 259 257 250 246 243 243 232 232 241 242 240 233 229 230 229 221 227 225 223
nan nan nan nan nan nan nan nan nan nan nan nan nan nan nan nan nan nan nan 288 274 nan nan nan nan nan nan nan nan nan 305 303 292 285 279 269 262 255 255 257 258 259 257 254 246 236 232 233 235 236 236 231 227 228 233 239 244 250 253 253 249 246 241 238 244 250 255 258 256 253 251 246 239 237 234 233 241 243 240 235 233 233 234 228 232 235
nan nan nan nan nan nan nan nan nan nan nan nan nan nan nan nan nan nan nan nan 289 nan nan nan nan nan nan nan nan nan nan 302 301 291 272 264 258 257 258 259 258 258 258 257 255 245 236 232 234 236 236 235 230 224 227 232 237 243 250 253 253 252 248 238 232 239 249 251 251 252 250 249 247 241 239 241 241 245 245 240 235 232 231 238 237 238
nan nan nan nan nan nan nan nan nan nan nan nan nan nan nan nan nan nan nan nan nan nan nan nan nan nan nan nan nan 272 280 289 287 284 280 275 264 257 256 257 259 259 258 259 255 250 242 234 232 234 236 238 236 231 226 226 233 238 243 249 253 254 253 246 236 230 234 243 248 250 253 252 251 250 248 246 246 248 251 249 243 235 236 239 244 244
nan 255 nan nan nan nan nan nan nan nan nan nan nan nan nan nan nan nan nan nan nan nan nan nan nan nan 276 275 277 276 281 285 290 297 293 283 274 265 259 259 259 259 261 259 256 250 245 237 233 231 231 231 233 233 231 230 231 232 235 241 246 250 252 251 242 234 236 240 240 244 248 251 251 251 252 251 250 249 249 249 247 243 237 238 243 247
nan 260 nan nan nan nan nan nan nan nan nan nan nan nan nan nan nan nan nan nan nan nan nan nan nan nan 280 280 278 282 288 295 297 295 291 288 285 275 265 260 259 258 256 255 252 249 242 237 231 229 229 229 230 232 232 231 231 232 233 235 240 247 247 247 244 239 236 238 240 241 243 247 250 249 250 252 251 249 247 247 248 249 247 243 243 246
nan 264 nan nan nan nan nan nan nan nan nan nan nan nan nan nan nan nan nan nan nan nan nan nan nan 259 275 282 284 286 294 297 292 292 288 285 287 284 274 262 257 256 253 251 251 249 245 240 234 229 229 232 231 231 232 230 228 227 228 228 227 228 236 244 243 236 233 234 237 241 244 244 245 246 248 250 251 250 248 247 248 250 250 249 246 244
nan nan nan nan nan nan nan nan nan nan nan nan 257 259 nan nan nan nan nan nan nan nan nan 257 263 270 278 281 286 290 296 295 291 280 271 277 287 288 282 273 261 255 252 248 246 247 246 242 236 231 228 228 229 230 231 231 229 227 226 225 225 225 225 225 232 235 231 230 233 237 241 243 243 242 244 246 248 250 250 250 249 248 247 246 248 248
nan nan nan nan nan nan nan nan nan nan nan 263 271 268 270 nan nan nan nan nan nan 286 285 280 277 273 275 275 277 284 284 281 277 281 281 279 279 282 286 281 269 257 249 246 241 241 242 240 238 233 229 228 228 227 228 230 232 230 227 226 226 226 225 227 222 224 229 229 230 233 237 239 240 240 241 243 246 248 251 253 251 250 248 247 248 250
nan nan nan nan nan nan nan nan nan nan 266 nan 273 272 272 nan nan nan nan nan nan 284 288 290 281 276 276 275 274 277 279 279 278 280 283 286 287 287 286 281 273 263 252 242 237 238 238 238 237 237 234 229 226 228 229 228 229 230 229 228 225 224 226 227 228 227 226 229 232 233 237 238 237 237 239 242 245 248 251 253 255 253 251 249 247 248
nan nan nan nan nan nan nan nan nan 259 nan nan nan 281 nan nan nan nan nan nan nan 292 292 292 286 284 284 281 280 277 277 280 286 290 294 293 296 292 286 277 271 265 255 246 240 236 236 238 239 237 235 232 228 227 230 231 232 232 232 230 227 225 224 226 229 230 230 229 231 234 236 237 234 233 235 240 244 248 249 251 253 254 254 254 253 252
nan nan nan nan nan nan nan nan nan nan nan nan nan nan nan nan nan nan nan nan 281 290 297 297 296 295 293 288 285 282 281 288 289 293 296 299 299 299 289 278 271 267 261 251 242 239 236 237 237 236 236 235 232 230 230 231 232 233 236 235 233 230 227 226 226 228 230 233 234 235 238 237 234 232 233 237 242 246 248 249 250 252 255 256 256 256
nan 251 nan nan nan nan nan nan nan nan nan nan nan nan nan 277 nan 269 nan nan 283 290 297 297 298 300 299 295 290 286 288 282 nan 274 287 295 299 298 292 279 269 262 258 252 246 242 239 239 237 234 235 237 235 233 230 229 231 235 237 239 236 234 231 229 226 226 228 231 234 234 233 236 234 232 233 236 241 246 250 251 251 251 253 254 254 256
nan nan nan nan nan nan nan nan nan nan nan 266 271 nan 282 284 282 nan nan nan 281 294 297 297 299 302 298 297 295 293 290 nan nan 270 282 291 295 296 287 272 263 258 256 249 247 244 241 243 240 239 237 236 236 234 232 231 233 233 235 237 238 236 234 233 231 229 226 227 228 231 235 236 235 233 233 237 242 246 248 249 249 251 253 254 254 254
nan nan nan nan nan nan nan nan nan nan 259 261 269 275 278 278 283 nan nan nan 282 291 296 293 296 299 299 301 300 294 285 266 268 276 282 288 291 290 280 268 259 253 246 243 243 240 243 243 244 241 238 238 238 237 235 234 234 234 235 235 237 235 234 232 230 229 231 235 234 231 231 237 239 238 239 239 241 243 245 247 249 250 253 255 255 255
247 244 nan nan nan nan nan nan nan nan 251 263 264 269 273 278 nan nan 264 268 284 287 290 289 291 294 299 304 303 287 280 278 273 277 284 289 289 284 279 270 261 255 247 245 245 243 242 242 242 242 241 242 241 239 238 236 233 233 234 234 234 233 231 230 231 232 230 231 238 240 236 234 239 244 243 245 246 247 247 246 247 248 252 253 254 258
243 nan nan nan nan nan nan nan nan nan 259 267 266 261 266 280 nan 263 275 272 276 285 288 284 283 286 292 296 296 285 287 284 282 282 283 286 289 285 276 260 251 247 245 242 243 243 242 241 240 nan 240 243 243 241 240 237 233 232 233 233 231 230 229 228 230 234 235 234 237 244 244 241 238 243 249 249 251 250 250 250 250 249 250 252 254 257
nan nan nan 245 nan 244 251 252 nan 241 250 274 281 273 282 274 258 274 277 273 274 281 282 278 276 280 284 285 287 287 286 286 284 284 283 285 285 285 280 267 258 251 245 242 243 244 242 243 nan nan 243 244 245 243 nan 240 235 233 230 229 230 229 228 227 229 232 235 236 239 240 242 245 245 245 252 255 255 254 254 255 253 250 248 251 255 256
251 238 235 236 241 238 241 247 248 245 254 271 268 246 258 278 259 262 265 276 280 279 278 276 276 279 278 281 284 286 286 285 284 284 283 284 288 287 281 270 256 248 244 243 240 nan nan nan nan 244 245 247 245 nan nan nan 239 232 229 228 229 228 228 227 228 231 235 234 234 240 245 248 248 248 251 254 258 261 261 257 255 252 250 250 255 258
248 247 247 240 242 235 237 242 245 248 252 260 265 256 251 263 263 262 266 275 276 278 279 276 278 279 279 281 285 286 284 285 286 285 282 282 285 284 280 274 267 256 248 245 246 nan nan nan 252 253 250 251 nan nan nan nan 247 238 234 nan nan nan 229 229 230 231 234 236 237 236 241 248 250 246 247 252 254 260 264 260 257 251 252 252 255 256
249 247 248 245 241 238 242 242 245 244 245 247 256 260 257 257 257 259 263 269 272 277 275 276 280 283 283 285 287 285 285 284 285 282 280 279 282 285 287 278 266 257 251 248 250 nan 251 250 250 249 250 252 nan nan nan nan nan nan nan nan nan nan 232 234 234 235 236 237 239 242 246 251 255 254 249 247 247 247 247 247 249 252 256 257 256 259
250 249 241 245 244 243 246 243 235 236 245 248 249 258 257 260 260 260 257 265 271 273 273 277 281 284 284 287 287 287 287 287 285 283 279 277 278 282 283 280 272 266 260 nan 255 nan 255 253 250 249 nan nan nan nan 259 257 nan nan nan nan nan nan nan 238 237 238 238 239 242 243 244 248 252 254 253 248 247 248 249 249 249 246 240 237 243 255
247 nan 245 246 244 244 244 242 237 234 237 249 256 254 251 253 261 262 262 268 273 276 276 276 278 282 286 284 286 286 288 286 283 281 276 274 276 279 280 276 272 267 265 263 259 nan 254 nan nan nan nan nan nan nan 260 nan nan nan 254 252 247 244 242 242 242 241 241 242 244 245 247 249 252 256 259 257 254 250 248 248 249 250 247 238 236 240
250 249 249 246 243 244 241 242 239 241 241 243 241 245 255 256 257 262 263 271 275 278 279 279 277 279 281 282 285 286 287 284 281 279 275 271 274 278 276 274 272 271 270 nan nan nan nan nan nan nan nan nan nan 261 nan nan nan nan nan 258 255 250 247 246 246 245 244 243 244 245 246 246 250 255 258 260 261 259 254 248 247 249 248 243 235 235
245 239 244 245 244 246 242 239 238 236 239 241 239 236 242 254 262 266 268 272 275 278 281 283 283 283 282 280 280 284 285 282 280 277 275 271 271 273 274 274 273 nan nan nan nan nan nan nan nan 258 258 nan nan 262 nan nan nan nan nan nan nan nan nan nan 247 247 246 245 244 245 247 249 nan 254 258 261 261 259 257 252 244 241 249 250 240 235